Theta_e
326 326 326 326 325 326 326 327 328 328 327 327 326 325 324 324 322 313 308 315 315 325 322 311 311 310 312 310 311 309 299 298 299 299 299 303 300 303 304 305 305 309 313 325 332
325 325 325 325 325 326 327 327 327 327 327 326 325 324 323 323 310 307 321 328 326 327 310 307 305 308 305 306 306 302 299 301 303 301 301 303 302 301 299 303 304 309 323 331 331
323 324 324 324 324 325 326 327 326 326 326 325 324 323 322 319 305 305 327 329 328 326 312 310 309 306 304 305 303 302 300 301 302 303 305 302 300 302 299 298 303 306 318 327 326
321 323 323 324 324 324 325 326 326 325 325 324 323 322 321 314 294 312 326 330 328 318 311 308 306 302 301 299 303 298 301 302 303 303 304 301 302 298 300 299 304 308 319 325 323
320 322 322 323 323 323 325 326 325 324 323 323 323 322 314 303 304 315 325 327 321 315 307 305 303 302 298 299 300 298 298 301 302 302 303 303 301 299 299 302 303 311 318 322 324
320 321 321 321 322 323 324 325 324 323 322 323 322 322 310 296 311 316 317 319 314 309 307 306 304 304 300 299 298 300 300 299 301 301 301 300 299 299 301 302 302 307 314 318 323
319 320 320 321 322 322 323 324 323 322 322 321 322 316 304 302 312 315 314 312 311 309 306 308 308 303 302 297 300 299 295 297 297 299 297 299 295 296 300 301 301 303 308 316 319
319 319 320 320 321 322 322 323 322 321 321 322 321 312 300 312 313 312 311 309 310 310 309 309 308 305 303 300 298 295 294 290 295 297 297 296 293 299 298 298 297 300 301 307 315
318 319 319 320 320 321 321 321 320 321 322 323 313 307 298 312 307 310 310 306 307 307 308 307 307 302 301 294 290 292 288 291 292 297 296 294 293 296 298 297 296 297 299 305 308
318 318 319 319 319 320 320 320 320 321 318 314 309 300 302 300 307 309 309 308 304 304 302 302 300 296 294 291 284 287 286 291 290 293 294 292 292 295 296 296 295 295 296 299 304
318 318 319 319 319 320 317 313 306 304 305 298 299 299 300 306 308 305 307 305 304 301 294 298 292 289 292 294 294 291 290 289 291 294 292 292 293 295 296 295 295 296 296 296 299
317 318 318 319 320 319 313 304 303 305 296 304 304 302 305 305 299 303 306 299 298 292 296 293 289 296 297 296 294 291 290 288 290 293 292 292 291 294 295 295 296 296 296 297 297
317 317 318 319 318 314 308 306 309 307 295 299 303 300 302 304 298 299 302 300 296 293 293 290 293 298 296 293 292 290 289 288 289 291 291 288 288 291 295 296 297 297 297 296 298
317 317 317 318 312 312 306 311 313 309 288 291 296 299 303 303 297 303 303 300 296 292 293 292 295 294 293 292 293 288 292 292 290 287 282 288 279 288 291 293 295 295 295 296 297
316 317 318 317 311 307 309 314 314 305 277 292 295 305 303 297 297 298 302 299 294 293 293 290 291 292 291 292 294 290 293 291 290 287 284 283 280 285 291 289 291 294 295 296 298
316 316 317 314 313 312 314 316 308 288 278 288 295 294 295 297 296 297 297 299 298 294 293 291 294 294 293 293 294 294 291 290 288 286 279 284 282 283 286 290 291 293 295 297 297
315 315 315 314 307 314 315 304 285 280 292 288 289 293 292 292 293 293 292 290 288 285 285 289 289 291 294 290 292 291 287 279 278 277 277 284 282 286 289 289 291 293 295 296 297
315 315 313 313 314 314 308 293 280 286 288 293 291 292 288 291 291 292 290 287 291 289 287 284 281 288 292 291 288 288 287 281 275 276 277 281 279 285 291 292 293 295 296 296 296
315 313 310 311 313 312 297 283 283 287 292 290 291 287 287 290 290 290 289 288 291 291 285 284 284 291 292 293 293 288 285 290 282 276 278 281 284 290 292 291 291 294 295 294 295
310 308 307 312 313 305 292 286 289 294 295 292 286 289 285 287 287 288 288 291 291 293 293 289 283 289 290 292 292 290 292 284 283 273 273 278 280 283 287 289 291 292 293 294 295
306 301 307 312 309 297 286 287 292 296 297 291 289 288 288 287 288 287 288 291 294 292 293 290 289 285 289 287 287 287 286 287 287 285 278 275 279 288 290 291 291 291 294 294 294
296 291 308 309 291 291 287 291 295 294 297 294 294 292 289 289 287 287 287 290 295 294 289 291 290 282 285 291 293 290 288 288 281 279 281 281 280 290 290 292 293 292 295 295 295
287 288 304 304 285 286 290 293 294 293 294 293 293 294 294 290 286 289 290 295 295 294 290 292 287 279 282 286 290 287 288 288 288 285 279 276 282 292 292 292 292 293 294 294 293
287 284 288 297 296 291 288 289 290 296 295 296 294 295 292 289 291 288 290 292 295 294 296 295 290 284 280 283 287 284 287 288 287 281 283 282 285 286 289 291 293 293 293 293 293
285 285 285 285 289 291 292 290 289 290 295 296 293 293 291 287 289 289 292 292 293 295 294 292 281 285 286 287 286 284 285 287 285 287 282 285 286 290 289 291 292 293 293 293 293
286 285 285 289 292 291 291 289 289 291 292 292 292 293 293 290 290 288 291 291 289 292 292 293 281 284 278 286 286 283 287 287 288 288 287 288 286 292 292 293 293 294 294 293 293
288 287 287 289 289 289 288 291 291 294 295 296 295 293 292 294 296 296 297 296 294 291 290 289 283 281 274 283 284 280 284 287 288 290 288 284 290 293 292 292 293 293 294 294 294
Wind_Speed
23 21 20 18 17 18 16 13 11 12 8 6 6 7 6 6 5 3 7 3 3 6 2 3 4 3 2 3 3 3 2 4 4 9 8 9 5 2 2 8 4 5 6 15 15
23 22 21 19 17 17 18 16 13 12 10 10 8 8 8 7 8 12 3 12 9 9 3 5 5 6 0 2 2 2 2 4 2 5 9 11 11 6 5 9 6 8 10 16 13
20 23 22 21 19 17 16 17 17 12 12 10 8 7 8 6 6 7 16 13 10 8 2 6 6 5 1 3 3 4 3 3 7 5 12 9 8 8 8 5 10 13 11 13 13
15 23 22 21 20 18 17 17 17 14 10 10 10 9 8 5 7 3 6 15 13 6 4 3 2 7 2 4 5 3 4 6 3 4 7 9 7 4 4 3 4 12 15 14 14
15 21 22 21 20 19 18 17 17 18 10 10 11 10 6 5 3 4 5 11 10 7 7 7 6 4 7 5 0 3 3 5 7 1 6 5 7 6 6 8 6 11 14 13 14
14 18 20 19 19 19 18 17 16 18 15 9 9 7 4 10 2 6 7 7 10 9 7 7 6 6 2 4 6 1 6 6 4 4 3 6 4 3 7 10 8 6 10 10 13
20 18 17 19 18 18 19 18 17 16 19 13 9 4 4 6 3 5 6 5 6 7 7 7 5 7 5 1 2 3 6 4 4 5 2 1 2 6 7 7 9 8 8 10 10
19 22 15 18 19 20 19 18 15 17 16 16 7 4 4 3 7 4 5 5 2 1 3 5 4 2 2 5 2 4 4 5 5 4 2 0 4 9 9 9 9 10 9 8 10
23 22 23 20 21 21 20 18 13 14 15 16 10 8 6 1 5 7 6 7 8 4 3 2 3 4 2 4 3 5 3 6 3 6 4 5 4 5 6 7 7 8 9 9 7
24 24 22 24 24 24 23 19 14 14 11 10 3 1 5 5 5 8 5 9 6 9 4 4 4 4 4 5 7 5 4 7 6 7 2 5 6 4 6 6 8 7 8 8 9
25 26 26 24 26 29 24 12 8 5 9 8 12 0 8 5 5 6 5 8 6 6 6 6 5 8 9 8 10 2 9 5 5 3 2 6 6 7 9 6 7 7 8 8 9
28 29 28 26 30 31 19 10 15 7 11 3 2 9 4 1 6 9 3 7 8 9 8 3 8 9 9 10 7 3 8 5 4 4 1 6 10 7 8 8 10 9 8 8 8
30 30 31 30 30 19 19 14 6 11 7 3 1 11 4 3 6 13 8 4 10 11 12 9 7 11 9 5 6 5 5 5 4 4 3 3 7 9 8 7 8 8 6 3 11
32 30 30 33 19 17 18 9 2 4 5 8 6 5 5 4 3 7 6 2 7 15 11 7 5 13 7 7 6 6 5 8 10 6 4 5 6 7 10 11 8 9 8 7 6
31 32 33 31 13 19 19 5 5 2 8 15 7 7 9 7 12 4 1 1 7 8 8 5 7 10 6 7 7 3 7 8 5 3 4 3 1 8 7 7 9 11 10 8 9
30 31 32 18 11 16 13 8 3 3 6 9 10 11 9 7 4 5 5 0 2 3 5 3 4 5 5 4 7 7 7 8 1 2 3 8 6 6 5 9 7 7 9 10 8
30 32 28 14 14 19 15 8 5 6 10 11 11 14 18 10 8 8 15 9 7 8 6 3 3 2 1 9 4 6 8 3 1 2 6 5 5 11 3 2 5 10 9 8 8
31 31 26 9 17 19 12 15 7 16 18 9 14 16 15 17 5 9 16 13 11 8 10 8 3 8 5 5 10 9 8 7 8 5 5 4 9 8 1 6 5 6 9 9 8
30 15 13 7 19 14 16 14 14 19 17 13 21 19 12 13 10 7 14 17 15 11 6 8 4 5 3 1 12 7 9 3 8 3 4 7 7 6 4 4 4 5 8 8 8
13 17 13 19 20 12 17 16 10 14 18 17 11 13 20 23 11 15 17 15 12 17 8 2 7 3 2 3 2 4 6 3 2 6 5 6 5 7 4 8 7 8 9 8 8
8 8 13 22 16 12 22 20 17 9 22 16 7 10 14 18 16 14 15 7 19 17 9 1 7 1 4 7 8 3 5 5 6 6 7 1 8 7 12 12 13 11 9 8 8
2 7 15 21 13 12 16 17 12 4 9 6 6 6 16 19 14 14 14 14 16 16 16 3 6 5 5 2 2 4 6 10 6 4 2 5 11 2 4 2 10 11 13 10 9
4 1 6 24 13 19 10 18 12 9 7 15 6 5 7 15 11 13 12 1 14 18 19 10 3 5 5 3 3 5 6 5 6 4 6 7 14 2 7 6 4 10 9 8 9
2 5 2 9 6 17 15 23 15 11 8 7 7 7 5 14 6 15 7 1 5 14 9 13 4 10 16 7 10 7 9 10 6 4 17 12 20 2 4 6 5 8 9 9 9
0 1 2 15 14 19 18 24 17 13 9 11 8 14 11 8 16 7 10 3 5 4 6 9 9 7 10 3 4 7 11 13 13 21 11 23 16 24 7 10 10 7 9 10 11
0 1 2 9 13 23 22 26 28 19 20 20 9 14 13 7 11 7 17 6 6 3 11 6 3 4 3 5 4 3 8 18 21 22 17 18 14 13 8 8 9 15 16 15 13
1 2 2 6 14 17 23 24 30 18 6 18 11 13 15 6 8 4 7 9 13 14 12 10 8 5 4 5 6 4 27 9 12 20 14 20 30 12 14 8 9 9 12 15 15
Wind_Direction
196 194 190 189 179 170 175 182 162 172 180 199 191 158 168 169 141 202 223 170 158 133 148 135 220 119 51 284 321 322 306 229 245 147 123 143 109 318 33 118 110 50 42 126 124
203 190 188 187 187 182 172 173 175 164 172 191 177 159 159 186 222 226 193 140 139 142 140 165 194 129 185 244 226 239 243 243 150 47 141 161 139 128 163 129 110 90 86 108 127
227 193 186 187 184 189 177 170 165 157 174 167 162 160 163 189 219 230 183 150 151 163 239 237 232 102 182 245 232 234 263 107 35 22 129 163 124 168 144 176 170 154 146 133 150
245 200 187 181 182 185 185 169 162 160 170 162 160 163 162 205 199 38 92 144 156 172 238 182 213 133 185 236 237 289 360 5 73 344 128 147 107 165 189 99 60 147 151 143 160
226 206 185 180 179 180 178 166 159 149 159 165 156 156 173 201 261 121 133 139 147 176 196 174 167 168 165 216 72 241 107 34 73 350 101 123 137 181 138 110 67 110 144 157 160
209 204 179 180 172 177 167 162 158 149 155 160 143 166 245 211 112 124 121 153 158 173 200 194 174 212 292 238 208 259 106 109 153 80 44 137 113 67 219 134 118 139 151 162 171
195 193 178 177 170 166 159 153 153 150 145 164 149 195 253 197 106 114 144 182 170 194 181 211 242 164 196 72 103 142 115 132 131 167 154 328 133 220 133 130 156 180 178 170 183
201 182 172 179 168 155 151 143 153 144 146 135 144 217 246 359 106 137 198 122 166 112 347 177 55 336 340 130 94 177 159 156 164 144 291 178 236 201 158 156 185 187 190 188 188
191 176 170 181 166 149 143 132 142 137 134 134 146 231 217 195 150 162 206 157 142 135 39 80 162 153 165 176 135 238 196 199 177 198 140 201 239 111 142 168 215 191 195 173 202
192 175 175 168 163 143 125 118 128 124 144 167 144 153 184 204 122 141 212 157 141 133 122 172 146 163 216 199 198 151 235 196 154 199 192 197 257 174 179 186 211 219 200 179 185
180 171 172 164 152 134 122 130 153 132 199 168 169 111 126 75 93 171 188 188 118 151 159 216 170 195 193 213 252 166 195 217 95 35 186 226 246 228 186 185 221 235 202 195 181
175 178 166 165 152 142 145 178 182 151 153 70 64 181 65 288 131 159 200 174 146 162 154 156 213 188 205 211 239 285 198 165 63 78 57 223 248 241 249 204 190 207 213 200 161
174 180 167 158 149 147 164 192 167 132 132 122 328 167 165 210 165 174 190 182 167 173 181 164 175 219 209 179 161 234 221 148 144 131 268 345 279 239 232 226 188 212 224 157 166
171 176 167 152 150 164 175 184 326 26 105 155 191 199 137 216 154 135 226 174 191 187 175 212 180 197 151 169 173 204 82 99 122 146 220 166 275 234 199 203 201 193 205 183 149
172 172 167 163 144 176 165 122 79 324 149 150 159 143 154 190 131 232 27 51 186 165 141 183 148 142 161 172 179 217 133 127 138 236 38 225 326 263 166 201 212 212 199 191 164
171 167 167 179 150 162 130 111 108 137 182 183 142 163 149 197 143 116 148 165 282 101 60 86 314 136 164 91 164 134 90 80 110 180 283 210 193 260 184 201 210 194 179 164 140
175 175 170 179 160 152 126 113 97 202 165 162 175 165 179 162 135 182 177 176 157 136 170 115 100 55 44 92 96 128 137 99 213 223 217 331 227 233 274 285 195 177 154 145 143
171 171 176 175 151 148 144 163 191 184 181 144 156 152 179 151 154 192 166 186 225 208 146 165 182 158 192 174 164 186 173 154 179 194 216 345 239 246 87 51 66 134 149 136 140
166 171 164 174 153 157 151 184 197 168 175 151 139 158 175 168 136 178 194 193 192 206 184 157 96 40 112 81 144 200 214 104 100 16 59 216 272 291 167 190 174 154 138 156 159
169 169 172 157 151 168 170 195 190 156 148 144 154 183 181 173 144 180 184 195 199 207 217 26 101 28 351 343 341 172 147 112 317 138 235 254 247 231 246 242 206 198 182 178 169
183 167 150 149 147 179 196 186 180 173 155 165 162 172 180 174 177 188 185 164 191 188 193 281 103 76 136 223 168 158 191 211 159 183 178 213 257 208 209 204 193 195 182 185 168
9 151 157 142 155 194 195 185 196 154 162 191 139 143 177 168 184 189 200 183 180 163 189 152 97 147 192 340 36 254 205 195 154 247 184 146 259 128 91 76 174 180 174 168 160
79 332 195 152 167 186 157 198 207 160 182 184 154 132 157 167 188 190 186 151 166 167 172 171 174 86 9 322 158 212 207 227 244 71 200 142 260 7 51 47 124 150 156 149 150
115 145 313 173 186 167 166 190 199 161 166 184 167 120 142 172 185 193 146 142 164 163 125 149 134 192 197 194 136 191 199 199 181 160 230 219 257 143 177 174 164 155 153 155 160
8 138 262 172 186 175 173 183 187 172 172 168 191 183 162 160 189 175 158 103 39 112 125 148 200 192 237 122 131 186 185 204 202 228 192 240 238 254 177 196 200 158 151 168 182
340 98 58 168 160 178 178 185 187 190 174 188 163 182 195 157 179 162 175 141 164 83 172 177 222 162 327 189 143 170 212 210 215 230 230 248 255 261 210 170 161 184 183 191 196
129 85 317 168 167 175 191 180 188 174 183 183 170 171 195 174 157 184 169 144 144 153 176 167 135 123 243 133 93 317 224 192 217 223 209 229 243 244 254 187 189 194 192 199 196